DW4725 Weather Reports


Display with metric or nautical units.
time (UTC)temp
F
wind
direction
speed
MPH
gust
MPH
rain 1hr
in
rain 24hr
in
rain mn
in
humidity
%
barometer
mb
20260506080247 46 248 3.0 7.0 0.00 0.07 0.00 96 1006.5
20260506073346 47 117 0.0 0.0 0.00 0.07 0.00 93 1006.2
20260506073140 47 117 0.0 0.0 0.00 0.07 0.00 93 1006.1
20260506072621 46 98 0.0 2.0 0.00 0.07 0.00 93 1006.1
20260506072420 46 89 0.0 2.0 0.00 0.07 0.00 93 1006.1
20260506072222 46 113 1.0 4.0 0.00 0.07 0.00 93 1006.1
20260506072016 46 116 1.0 4.0 0.00 0.07 0.00 93 1006.1
20260506071812 46 126 1.0 4.0 0.00 0.07 0.00 93 1006.1
20260506071612 46 116 2.0 4.0 0.00 0.07 0.00 93 1006.0
20260506071411 46 129 2.0 4.0 0.00 0.07 0.00 93 1006.0
20260506071206 46 138 2.0 4.0 0.00 0.07 0.00 93 1006.0
20260506070307 46 139 2.0 4.0 0.00 0.07 0.00 93 1006.0
20260506070106 46 93 2.0 3.0 0.00 0.07 0.00 93 1006.0
20260506062408 44 111 1.0 3.0 0.00 0.07 0.00 94 1006.1
20260506062205 44 115 1.0 3.0 0.00 0.07 0.00 94 1006.1
20260506062001 44 119 1.0 3.0 0.00 0.07 0.00 94 1006.2
20260506061438 44 113 2.0 3.0 0.00 0.07 0.00 94 1006.2
20260506061238 44 115 2.0 5.0 0.00 0.07 0.00 94 1006.2
20260506061033 45 120 2.0 5.0 0.00 0.07 0.00 93 1006.2
20260506060826 44 117 2.0 5.0 0.00 0.07 0.00 93 1006.2
20260506060619 45 100 2.0 5.0 0.00 0.08 0.00 93 1006.2
20260506060413 44 103 2.0 5.0 0.00 0.08 0.00 93 1006.2
20260506060209 44 108 2.0 5.0 0.00 0.08 0.00 93 1006.2
20260506051240 45 103 0.0 3.0 0.00 0.14 0.00 92 1006.1
20260506050709 45 101 0.0 1.0 0.00 0.15 0.00 92 1006.0
20260506050505 45 114 0.0 1.0 0.00 0.16 0.00 92 1006.1
20260506050259 45 115 0.0 0.0 0.00 0.17 0.00 92 1006.1
20260506044928 44 113 0.0 0.0 0.00 0.21 0.00 94 1006.1
20260506044724 44 113 0.0 0.0 0.00 0.22 0.00 94 1006.0
20260506044518 44 113 0.0 0.0 0.00 0.22 0.00 94 1006.2
20260506044316 44 113 0.0 0.0 0.00 0.22 0.00 95 1006.2
20260506044108 44 113 0.0 0.0 0.00 0.22 0.00 95 1006.2
20260506043545 43 113 0.0 0.0 0.00 0.24 0.00 95 1006.2
20260506043341 43 113 0.0 0.0 0.00 0.24 0.00 95 1006.2
20260506043138 43 113 0.0 0.0 0.00 0.24 0.00 95 1006.2
20260506042620 43 113 0.0 0.0 0.00 0.25 0.00 95 1006.1
20260506042410 43 113 0.0 0.0 0.00 0.25 0.00 95 1006.2
20260506042204 43 113 0.0 0.0 0.00 0.25 0.00 95 1006.3
20260506041958 43 113 0.0 0.0 0.00 0.26 0.00 95 1006.3
20260506041109 43 113 0.0 3.0 0.00 0.27 0.00 95 1006.2
20260506040906 43 113 0.0 3.0 0.00 0.27 0.00 95 1006.1
20260506040020 43 118 1.0 4.0 0.00 0.28 0.00 95 1006.2
20260506035820 43 120 1.0 4.0 0.00 0.28 0.00 95 1006.2
20260506035614 43 101 1.0 4.0 0.00 0.28 0.00 95 1006.3
20260506035407 43 123 1.0 4.0 0.00 0.28 0.00 95 1006.2
20260506035205 43 108 1.0 4.0 0.00 0.28 0.00 95 1006.2
20260506035006 43 117 1.0 4.0 0.00 0.28 0.00 95 1006.1
20260506034755 43 110 1.0 4.0 0.00 0.28 0.00 95 1006.2
20260506034554 43 98 1.0 4.0 0.00 0.28 0.00 95 1006.2
20260506034345 43 103 1.0 4.0 0.00 0.28 0.00 95 1006.1
20260506034136 43 117 1.0 4.0 0.00 0.28 0.00 95 1006.2
20260506033926 43 118 0.0 2.0 0.00 0.28 0.00 95 1006.1
20260506033716 43 113 0.0 4.0 0.00 0.28 0.00 95 1006.2
20260506033512 43 117 0.0 4.0 0.00 0.28 0.00 95 1006.1
20260506033304 43 113 1.0 4.0 0.00 0.28 0.00 95 1006.2
20260506033100 43 120 1.0 4.0 0.00 0.28 0.00 95 1006.2
20260506032900 43 113 1.0 4.0 0.00 0.28 0.00 95 1006.3
20260506032700 43 103 1.0 4.0 0.00 0.28 0.00 95 1006.3
20260506032455 43 125 1.0 4.0 0.00 0.28 0.00 95 1006.4
20260506032255 43 112 1.0 4.0 0.00 0.28 0.00 95 1006.4
20260506032051 43 113 1.0 4.0 0.00 0.28 0.00 95 1006.5
20260506031846 43 134 1.0 4.0 0.00 0.28 0.00 95 1006.4
20260506031331 44 122 2.0 5.0 0.00 0.28 0.00 95 1006.6
20260506031123 44 117 2.0 5.0 0.00 0.29 0.00 95 1006.6
20260506030922 44 129 2.0 5.0 0.00 0.29 0.00 94 1006.6
20260506030721 44 117 2.0 5.0 0.00 0.29 0.00 94 1006.7
20260506030522 44 120 2.0 5.0 0.00 0.29 0.00 94 1006.7
20260506030320 44 119 2.0 5.0 0.00 0.29 0.00 94 1006.8
20260506025436 44 129 1.0 3.0 0.00 0.29 0.00 93 1006.9
20260506025237 44 101 1.0 3.0 0.00 0.29 0.00 93 1006.8
20260506025027 45 111 2.0 3.0 0.00 0.29 0.00 93 1006.9
20260506024823 45 114 2.0 3.0 0.00 0.29 0.00 93 1006.8
20260506024621 45 114 1.0 3.0 0.00 0.29 0.00 93 1006.8
20260506024415 45 108 1.0 3.0 0.00 0.29 0.00 93 1006.9
20260506024206 45 115 0.0 3.0 0.00 0.30 0.00 92 1006.8
20260506023956 45 132 0.0 2.0 0.00 0.30 0.00 92 1006.8
20260506023747 45 122 0.0 1.0 0.00 0.30 0.00 92 1006.8
20260506023541 45 109 0.0 1.0 0.00 0.30 0.00 92 1006.8
20260506023014 45 109 0.0 0.0 0.00 0.31 0.00 93 1006.8
20260506022814 45 109 0.0 0.0 0.00 0.31 0.00 92 1006.9
20260506022605 45 109 0.0 3.0 0.00 0.32 0.00 92 1007.0
20260506022356 45 109 0.0 2.0 0.00 0.32 0.00 92 1007.0
20260506022155 45 106 0.0 2.0 0.00 0.32 0.00 92 1007.2
20260506021949 45 108 0.0 2.0 0.00 0.33 0.00 92 1007.1
20260506021749 45 109 0.0 2.0 0.00 0.33 0.00 92 1007.2
20260506021229 45 139 0.0 0.0 0.00 0.33 0.00 92 1007.2
20260506021023 45 139 0.0 0.0 0.00 0.33 0.00 92 1007.3
20260506020815 45 113 0.0 1.0 0.00 0.33 0.00 92 1007.4
20260506020612 45 111 0.0 1.0 0.00 0.33 0.00 92 1007.4
20260506020411 45 167 0.0 0.0 0.00 0.33 0.00 92 1007.4
20260506020207 45 167 0.0 2.0 0.00 0.33 0.00 92 1007.4
20260506020006 45 167 0.0 2.0 0.00 0.33 0.00 92 1007.4
20260506015446 45 109 1.0 0.0 0.00 0.33 0.00 93 1007.4
20260506015239 45 116 1.0 6.0 0.00 0.33 0.00 93 1007.6
20260506015031 45 111 1.0 6.0 0.00 0.34 0.00 93 1007.4
20260506014832 45 135 1.0 6.0 0.00 0.34 0.00 93 1007.6
20260506014259 45 113 2.0 6.0 0.00 0.34 0.00 93 1007.5
20260506014053 45 95 3.0 6.0 0.00 0.34 0.00 93 1007.5
20260506013852 45 107 3.0 6.0 0.00 0.34 0.00 93 1007.6
20260506013652 45 111 3.0 6.0 0.00 0.34 0.00 93 1007.6
20260506013445 45 117 2.0 5.0 0.00 0.34 0.00 93 1007.6
20260506013242 45 84 2.0 4.0 0.00 0.34 0.00 92 1007.6
20260506012712 46 122 0.0 4.0 0.00 0.34 0.00 90 1007.6
20260506012504 46 108 0.0 3.0 0.00 0.34 0.00 89 1007.6
20260506012308 47 117 0.0 2.0 0.00 0.34 0.00 88 1007.7
20260506012100 47 100 0.0 0.0 0.00 0.34 0.00 88 1007.6
20260506011850 47 96 0.0 0.0 0.00 0.34 0.00 88 1007.7
20260506011650 47 150 0.0 3.0 0.00 0.34 0.00 88 1007.8
20260506011450 47 146 0.0 3.0 0.00 0.34 0.00 88 1007.8
20260506011250 47 226 1.0 3.0 0.00 0.34 0.00 88 1007.9
20260506011048 47 215 1.0 3.0 0.00 0.34 0.00 88 1007.9
20260506010844 47 210 1.0 4.0 0.00 0.34 0.00 88 1007.9
20260506010634 47 190 1.0 4.0 0.00 0.34 0.00 89 1007.9
20260506010425 47 193 0.0 4.0 0.00 0.35 0.00 89 1008.0
20260506005859 47 157 0.0 4.0 0.00 0.35 0.00 89 1008.2
20260506005657 47 229 0.0 4.0 0.00 0.35 0.00 89 1008.2
20260506005457 47 221 0.0 4.0 0.00 0.35 0.00 88 1008.2
20260506005253 47 229 1.0 4.0 0.00 0.35 0.00 88 1008.1
20260506005053 47 196 0.0 4.0 0.00 0.35 0.00 88 1008.2
20260506004525 47 259 0.0 2.0 0.00 0.35 0.00 89 1008.1
20260506004316 47 212 0.0 2.0 0.00 0.35 0.00 89 1008.1
20260506004115 47 217 0.0 1.0 0.00 0.35 0.00 89 1008.1
20260506003912 47 222 0.0 1.0 0.00 0.35 0.00 89 1008.1
20260506003701 47 231 0.0 1.0 0.00 0.35 0.00 89 1008.2
20260506003457 47 236 0.0 2.0 0.00 0.35 0.00 89 1008.2
20260506003248 47 224 0.0 2.0 0.00 0.35 0.00 89 1008.2
20260506002723 47 242 0.0 2.0 0.00 0.35 0.00 88 1008.3
20260506002159 47 219 1.0 7.0 0.00 0.35 0.00 88 1008.5
20260506001952 47 214 1.0 7.0 0.00 0.35 0.00 88 1008.5
20260506001742 47 232 2.0 7.0 0.00 0.35 0.00 88 1008.6
20260506001531 47 219 2.0 7.0 0.00 0.35 0.00 88 1008.6
20260506001328 47 226 2.0 7.0 0.00 0.35 0.00 88 1008.8
20260506001125 47 208 2.0 7.0 0.00 0.35 0.00 88 1008.9
20260506000920 47 220 2.0 7.0 0.00 0.35 0.00 88 1009.0
20260506000715 48 226 2.0 7.0 0.00 0.35 0.00 87 1009.0
20260506000509 48 217 3.0 6.0 0.00 0.35 0.00 87 1009.0
20260506000302 48 236 2.0 6.0 0.00 0.35 0.00 87 1009.0
20260505235737 47 226 2.0 7.0 0.00 0.35 0.00 87 1009.2
20260505235528 47 217 2.0 7.0 0.00 0.35 0.00 87 1009.3
20260505235328 48 204 2.0 7.0 0.00 0.35 0.00 87 1009.3
20260505235117 48 252 2.0 7.0 0.00 0.35 0.00 87 1009.3
20260505234554 47 188 3.0 7.0 0.00 0.35 0.00 87 1009.3
20260505234349 48 207 3.0 7.0 0.00 0.35 0.00 87 1009.3
20260505234142 48 226 3.0 7.0 0.00 0.35 0.00 87 1009.4
20260505233939 48 252 2.0 7.0 0.00 0.35 0.00 87 1009.4
20260505233737 48 227 2.0 6.0 0.00 0.35 0.00 88 1009.3
20260505232858 47 233 1.0 5.0 0.00 0.35 0.00 89 1009.3
20260505232648 47 229 2.0 5.0 0.00 0.35 0.00 89 1009.2
20260505232445 47 226 2.0 7.0 0.00 0.35 0.00 89 1009.3
20260505232235 47 213 2.0 7.0 0.00 0.35 0.00 89 1009.2
20260505231715 47 210 3.0 7.0 0.00 0.35 0.00 89 1009.3
20260505231152 47 221 3.0 7.0 0.00 0.35 0.00 89 1009.3
20260505230954 47 256 2.0 7.0 0.00 0.35 0.00 89 1009.3
20260505230426 47 200 2.0 6.0 0.00 0.35 0.00 89 1009.3
20260505225545 47 229 2.0 6.0 0.00 0.35 0.00 89 1009.5
20260505225340 47 226 2.0 6.0 0.00 0.35 0.00 89 1009.6
20260505225135 47 240 2.0 10.0 0.00 0.35 0.00 89 1009.6
20260505224935 47 248 3.0 10.0 0.00 0.35 0.00 89 1009.6
20260505224735 47 196 3.0 10.0 0.00 0.35 0.00 89 1009.7
20260505224531 47 245 3.0 10.0 0.00 0.35 0.00 89 1009.8
20260505224326 47 238 3.0 10.0 0.00 0.35 0.00 89 1009.7
20260505224123 48 217 4.0 10.0 0.00 0.35 0.00 89 1009.7
20260505223917 48 236 4.0 10.0 0.00 0.35 0.00 88 1009.8
20260505223716 48 210 4.0 10.0 0.00 0.35 0.00 88 1009.7
20260505223506 48 239 4.0 10.0 0.00 0.35 0.00 88 1009.7
20260505222627 48 131 3.0 7.0 0.00 0.35 0.00 87 1009.7
20260505222419 48 203 3.0 7.0 0.00 0.35 0.00 87 1009.8
20260505222211 48 205 3.0 6.0 0.00 0.35 0.00 87 1009.7
20260505221647 48 226 3.0 6.0 0.00 0.35 0.00 88 1009.8
20260505221442 48 211 3.0 6.0 0.00 0.35 0.00 88 1009.8
20260505221241 48 212 3.0 6.0 0.00 0.35 0.00 87 1009.8
20260505221039 48 207 3.0 6.0 0.00 0.35 0.00 87 1009.7
20260505220520 48 219 3.0 7.0 0.00 0.35 0.00 85 1009.7
20260505215954 48 239 2.0 7.0 0.00 0.35 0.35 85 1009.7
20260505215755 48 213 3.0 7.0 0.00 0.35 0.35 85 1009.6
20260505215555 48 214 3.0 7.0 0.00 0.35 0.35 85 1009.7
20260505215354 49 253 2.0 7.0 0.00 0.35 0.35 85 1009.8
20260505215154 49 203 2.0 7.0 0.00 0.35 0.35 85 1009.8
20260505214629 49 207 2.0 6.0 0.00 0.35 0.35 85 1009.7
20260505214427 49 238 2.0 6.0 0.00 0.35 0.35 85 1009.7
20260505214218 49 221 3.0 6.0 0.00 0.35 0.35 85 1009.7
20260505213337 49 237 3.0 8.0 0.00 0.35 0.35 86 1009.7
20260505213129 49 214 3.0 8.0 0.00 0.35 0.35 87 1009.7
20260505212600 48 210 3.0 8.0 0.00 0.35 0.35 88 1009.7
20260505212350 48 221 3.0 8.0 0.00 0.35 0.35 89 1009.7
20260505211519 49 237 2.0 8.0 0.00 0.35 0.35 90 1009.6
20260505211311 49 205 2.0 10.0 0.00 0.35 0.35 90 1009.7
20260505211106 49 240 2.0 10.0 0.00 0.35 0.35 91 1009.7
20260505210900 49 208 2.0 10.0 0.00 0.35 0.35 91 1009.7
20260505210329 49 245 2.0 10.0 0.00 0.35 0.35 91 1009.7
20260505210122 49 201 2.0 10.0 0.00 0.35 0.35 91 1009.7
20260505205918 49 226 2.0 10.0 0.00 0.35 0.35 91 1009.8
20260505205713 49 250 2.0 10.0 0.00 0.35 0.35 91 1009.7
20260505205511 49 243 2.0 10.0 0.00 0.35 0.35 90 1009.8
20260505204941 49 247 2.0 9.0 0.00 0.35 0.35 90 1009.8
20260505204420 49 252 2.0 9.0 0.00 0.35 0.35 90 1009.9
20260505203847 49 226 1.0 6.0 0.00 0.35 0.35 91 1009.8
20260505203318 49 200 1.0 4.0 0.00 0.35 0.35 91 1009.8
20260505202756 49 223 2.0 4.0 0.00 0.35 0.35 91 1010.0
20260505202549 49 226 2.0 7.0 0.00 0.35 0.35 90 1010.0
20260505202024 49 242 2.0 7.0 0.00 0.35 0.35 90 1009.9
20260505201821 49 85 2.0 7.0 0.00 0.35 0.35 90 1010.0
20260505201615 49 214 2.0 7.0 0.00 0.35 0.35 89 1009.9
20260505201408 49 252 2.0 7.0 0.00 0.35 0.35 90 1009.8
20260505201208 49 251 2.0 7.0 0.00 0.35 0.35 90 1009.8
20260505201007 49 214 2.0 7.0 0.00 0.35 0.35 90 1009.8
20260505200806 49 234 2.0 7.0 0.00 0.35 0.35 90 1009.8
20260505200601 49 257 2.0 5.0 0.00 0.35 0.35 90 1009.8
20260505200353 49 208 2.0 5.0 0.00 0.35 0.35 90 1009.8
20260505200143 49 226 2.0 5.0 0.00 0.35 0.35 90 1009.8
20260505195937 49 210 2.0 5.0 0.00 0.35 0.35 90 1009.7
20260505195732 49 217 2.0 6.0 0.00 0.35 0.35 90 1009.8
20260505195523 49 236 1.0 6.0 0.00 0.35 0.35 90 1009.8
20260505194633 49 224 1.0 6.0 0.00 0.35 0.35 91 1009.7
20260505194434 49 229 1.0 6.0 0.00 0.35 0.35 91 1009.7
20260505194234 49 221 1.0 6.0 0.00 0.35 0.35 91 1009.6
20260505194027 49 224 1.0 6.0 0.00 0.35 0.35 92 1009.6
20260505193149 49 134 0.0 5.0 0.00 0.35 0.35 93 1009.2
20260505192948 49 153 0.0 5.0 0.00 0.35 0.35 93 1009.2
20260505192738 49 70 0.0 5.0 0.00 0.35 0.35 93 1009.2
20260505192222 49 210 0.0 5.0 0.00 0.35 0.35 93 1009.2
20260505192014 49 200 0.0 3.0 0.00 0.35 0.35 92 1009.2
20260505191805 49 212 0.0 3.0 0.00 0.35 0.35 92 1009.1
20260505191601 49 97 1.0 9.0 0.00 0.35 0.35 92 1009.1
20260505191359 49 224 1.0 9.0 0.00 0.35 0.35 92 1009.0
20260505191148 49 226 1.0 9.0 0.00 0.35 0.35 92 1009.1
20260505190630 49 229 2.0 9.0 0.00 0.35 0.35 92 1009.1
20260505190431 49 232 1.0 9.0 0.00 0.35 0.35 92 1009.0
20260505190224 49 169 1.0 5.0 0.00 0.35 0.35 92 1009.0
20260505190013 49 164 1.0 5.0 0.00 0.35 0.35 92 1009.2
20260505185815 49 257 1.0 5.0 0.00 0.35 0.35 92 1009.2
20260505185606 49 202 1.0 4.0 0.00 0.35 0.35 92 1009.0
20260505185403 49 206 1.0 5.0 0.00 0.35 0.35 92 1009.0
20260505185156 49 214 1.0 5.0 0.00 0.35 0.35 92 1009.0
20260505184949 49 229 1.0 5.0 0.00 0.35 0.35 92 1009.1
20260505184744 49 220 1.0 5.0 0.00 0.35 0.35 92 1009.1
20260505184229 49 154 1.0 5.0 0.00 0.35 0.35 92 1009.1
20260505183702 49 217 1.0 5.0 0.00 0.35 0.35 91 1009.1
20260505183453 49 237 1.0 4.0 0.00 0.35 0.35 92 1009.0
20260505182936 49 172 1.0 4.0 0.00 0.35 0.35 92 1009.0
20260505182727 49 257 1.0 4.0 0.00 0.35 0.35 93 1009.0
20260505182519 49 214 1.0 4.0 0.00 0.35 0.35 93 1009.0
20260505182318 49 193 1.0 4.0 0.00 0.35 0.35 93 1009.1
20260505181744 49 215 1.0 4.0 0.00 0.35 0.35 93 1009.1
20260505181542 49 218 1.0 4.0 0.00 0.35 0.35 93 1009.1
20260505181336 50 216 1.0 4.0 0.00 0.35 0.35 93 1009.1
20260505181133 50 226 0.0 4.0 0.00 0.35 0.35 93 1009.1
20260505180928 50 210 0.0 3.0 0.00 0.35 0.35 94 1009.1
20260505180720 50 237 0.0 3.0 0.00 0.34 0.34 94 1009.1
20260505180511 50 203 0.0 3.0 0.00 0.34 0.34 94 1009.1
20260505180305 50 208 0.0 3.0 0.00 0.34 0.34 95 1009.1
20260505180057 50 231 0.0 3.0 0.00 0.34 0.34 95 1009.1
20260505175853 50 211 0.0 3.0 0.00 0.34 0.34 95 1009.1
20260505175644 50 210 0.0 4.0 0.00 0.34 0.34 95 1009.1
20260505175434 50 217 0.0 4.0 0.00 0.34 0.34 95 1009.0
20260505175228 50 160 0.0 4.0 0.00 0.34 0.34 95 1009.1
20260505175023 50 213 0.0 4.0 0.00 0.34 0.34 95 1009.1
20260505174819 50 191 0.0 4.0 0.00 0.34 0.34 95 1009.2
20260505174615 50 224 0.0 3.0 0.00 0.34 0.34 95 1009.2
20260505174409 50 182 0.0 3.0 0.00 0.34 0.34 95 1009.2
20260505174205 50 102 0.0 3.0 0.00 0.34 0.34 95 1009.2
20260505173641 51 144 0.0 2.0 0.00 0.34 0.34 95 1009.2
20260505173442 51 113 0.0 1.0 0.00 0.34 0.34 95 1009.2
20260505173233 51 95 0.0 1.0 0.00 0.34 0.34 95 1009.2
20260505172039 51 203 0.0 2.0 0.00 0.34 0.34 95 1009.3
20260505171834 51 210 0.0 1.0 0.00 0.34 0.34 95 1009.3
20260505171314 51 237 1.0 0.0 0.00 0.34 0.34 94 1009.3
20260505170756 51 238 1.0 7.0 0.00 0.34 0.34 94 1009.4
20260505170230 51 239 2.0 7.0 0.00 0.33 0.34 93 1009.3
20260505170022 51 242 2.0 7.0 0.00 0.33 0.33 93 1009.2
20260505165821 51 245 2.0 7.0 0.00 0.33 0.33 93 1009.3
20260505165612 51 234 2.0 7.0 0.00 0.33 0.33 93 1009.3
20260505165410 51 243 2.0 7.0 0.00 0.33 0.33 93 1009.3
20260505165211 52 264 2.0 6.0 0.00 0.33 0.33 93 1009.3
20260505164651 52 236 2.0 10.0 0.00 0.33 0.33 93 1009.2
20260505164444 52 240 3.0 10.0 0.00 0.33 0.33 93 1009.3
20260505164242 52 249 3.0 10.0 0.00 0.33 0.33 93 1009.3
20260505164032 52 245 3.0 10.0 0.00 0.33 0.33 92 1009.3
20260505163825 52 223 4.0 10.0 0.00 0.33 0.33 92 1009.3
20260505163617 52 240 4.0 10.0 0.00 0.33 0.33 91 1009.3
20260505163415 52 240 4.0 10.0 0.00 0.33 0.33 91 1009.4
20260505163211 53 234 4.0 10.0 0.00 0.33 0.33 90 1009.4
20260505163003 53 233 5.0 10.0 0.00 0.33 0.33 90 1009.4
20260505162759 53 246 4.0 10.0 0.00 0.33 0.33 91 1009.3
20260505162554 53 205 5.0 11.0 0.00 0.33 0.33 91 1009.3
20260505162355 53 240 5.0 11.0 0.00 0.33 0.33 91 1009.3
20260505162150 53 220 5.0 11.0 0.00 0.33 0.33 90 1009.3
20260505161950 53 226 5.0 11.0 0.00 0.33 0.33 91 1009.2
20260505161747 53 227 5.0 11.0 0.00 0.33 0.33 90 1009.3
20260505161537 53 219 5.0 11.0 0.00 0.33 0.33 90 1009.3
20260505161328 53 228 5.0 11.0 0.00 0.33 0.33 89 1009.3
20260505160759 54 233 5.0 11.0 0.00 0.33 0.33 89 1009.2
20260505160556 54 239 5.0 11.0 0.00 0.33 0.33 89 1009.1
20260505160353 54 246 4.0 11.0 0.00 0.33 0.33 88 1009.1
20260505160144 54 220 4.0 11.0 0.00 0.33 0.33 90 1009.0
20260505153324 54 210 4.0 11.0 0.00 0.33 0.33 94 1008.9
20260505153123 53 198 4.0 11.0 0.00 0.33 0.33 94 1008.9
20260505152913 53 252 5.0 11.0 0.00 0.33 0.33 95 1008.9
20260505152704 53 234 5.0 11.0 0.00 0.33 0.33 95 1008.9
20260505152504 52 242 4.0 10.0 0.00 0.33 0.33 95 1008.9
20260505151628 52 238 3.0 11.0 0.00 0.34 0.33 96 1008.8
20260505151107 52 259 4.0 11.0 0.00 0.34 0.33 96 1008.8
20260505150859 52 233 4.0 11.0 0.00 0.34 0.33 96 1008.9
20260505150654 52 235 4.0 13.0 0.00 0.34 0.33 95 1009.0
20260505150454 52 207 5.0 13.0 0.00 0.34 0.33 96 1009.0
20260505150252 52 245 5.0 13.0 0.00 0.34 0.33 97 1008.9
20260505140538 50 219 4.0 11.0 0.00 0.37 0.33 97 1009.1
20260505140332 50 248 4.0 11.0 0.00 0.37 0.33 97 1009.0
20260505140132 50 247 4.0 11.0 0.00 0.37 0.33 96 1009.1
20260505130253 50 241 6.0 13.0 0.00 0.41 0.31 98 1009.1
20260505125025 49 218 8.0 14.0 0.00 0.41 0.31 97 1009.0
20260505124818 49 247 8.0 14.0 0.00 0.41 0.31 97 1009.0
20260505124616 49 227 8.0 14.0 0.00 0.41 0.31 96 1009.1
20260505124412 49 222 8.0 14.0 0.00 0.41 0.31 96 1009.0
20260505124207 49 239 7.0 14.0 0.00 0.40 0.31 97 1009.0
20260505123639 49 235 7.0 12.0 0.00 0.40 0.30 97 1009.2
20260505123112 49 215 7.0 11.0 0.00 0.40 0.30 97 1009.2
20260505122908 49 246 6.0 11.0 0.00 0.40 0.30 97 1009.3
20260505122703 49 245 5.0 11.0 0.00 0.40 0.30 97 1009.2
20260505122457 49 226 5.0 11.0 0.00 0.40 0.30 97 1009.3
20260505122251 49 250 4.0 11.0 0.00 0.40 0.30 97 1009.3
20260505121730 49 283 5.0 11.0 0.03 0.40 0.30 97 1009.3
20260505121527 50 224 4.0 11.0 0.03 0.40 0.30 97 1009.3
20260505121321 50 248 4.0 11.0 0.03 0.40 0.30 97 1009.4
20260505120756 50 240 4.0 11.0 0.03 0.40 0.30 96 1009.3
20260505120239 50 268 4.0 11.0 0.03 0.40 0.29 96 1009.4
20260505120037 50 238 5.0 13.0 0.03 0.40 0.29 95 1009.4
20260505115834 50 227 5.0 13.0 0.03 0.40 0.29 95 1009.3
20260505115635 50 247 5.0 13.0 0.03 0.40 0.29 95 1009.4
20260505115429 51 235 6.0 13.0 0.03 0.40 0.29 95 1009.4
20260505115228 51 245 6.0 13.0 0.03 0.39 0.29 94 1009.4
20260505114707 51 229 7.0 13.0 0.00 0.39 0.29 94 1009.4
20260505114501 51 233 7.0 13.0 0.00 0.39 0.29 93 1009.4
20260505114253 51 236 7.0 13.0 0.00 0.39 0.29 93 1009.3
20260505114051 51 240 6.0 13.0 0.00 0.38 0.28 93 1009.4
20260505113847 51 276 6.0 11.0 0.00 0.38 0.28 93 1009.4
20260505113649 51 236 5.0 10.0 0.00 0.38 0.28 93 1009.4
20260505113444 52 226 4.0 10.0 0.00 0.38 0.28 94 1009.4
20260505112928 52 206 4.0 10.0 0.00 0.38 0.28 92 1009.3
20260505112725 52 240 4.0 10.0 0.00 0.38 0.28 93 1009.3
20260505112204 52 217 4.0 9.0 0.00 0.38 0.28 93 1009.3
20260505111637 52 215 3.0 9.0 0.00 0.38 0.28 94 1009.3
20260505111435 52 224 3.0 9.0 0.00 0.38 0.28 93 1009.3
20260505111226 52 220 3.0 12.0 0.00 0.38 0.28 93 1009.2
20260505110706 52 240 5.0 12.0 0.00 0.38 0.28 93 1009.3
20260505110502 52 240 5.0 12.0 0.00 0.38 0.28 92 1009.2
20260505110301 53 241 6.0 12.0 0.00 0.38 0.28 93 1009.2
20260505101753 53 238 3.0 10.0 0.00 0.38 0.28 94 1009.2
20260505101553 53 227 3.0 8.0 0.00 0.38 0.28 94 1009.2
20260505101347 53 243 2.0 8.0 0.00 0.38 0.28 94 1009.2
20260505100823 53 258 3.0 8.0 0.00 0.38 0.28 94 1009.0
20260505100620 53 240 3.0 8.0 0.00 0.38 0.28 95 1009.1
20260505100415 52 232 3.0 8.0 0.00 0.38 0.28 95 1009.0
20260505100215 52 237 3.0 8.0 0.00 0.38 0.28 94 1009.1
20260505100010 52 223 3.0 8.0 0.00 0.38 0.28 95 1009.0
20260505095803 52 248 2.0 6.0 0.00 0.38 0.28 95 1009.2
20260505095557 52 240 2.0 6.0 0.00 0.38 0.28 96 1009.1
20260505095357 52 238 1.0 5.0 0.00 0.38 0.28 96 1009.1
20260505095149 52 241 1.0 5.0 0.00 0.38 0.28 96 1009.2
20260505094941 51 235 1.0 5.0 0.00 0.38 0.28 95 1009.1
20260505094738 52 240 1.0 5.0 0.00 0.38 0.28 96 1009.1
20260505094535 52 245 1.0 5.0 0.00 0.38 0.28 96 1009.1
20260505094331 52 262 1.0 5.0 0.00 0.38 0.28 96 1009.1
20260505094124 52 229 1.0 5.0 0.00 0.38 0.28 96 1009.1
20260505093922 52 255 1.0 4.0 0.00 0.38 0.28 97 1009.1
20260505093717 51 236 1.0 3.0 0.00 0.38 0.28 96 1009.1
20260505093510 51 286 1.0 3.0 0.00 0.38 0.28 95 1009.1
20260505093302 52 286 1.0 3.0 0.00 0.38 0.28 95 1009.1
20260505093103 52 288 0.0 3.0 0.00 0.38 0.28 96 1009.1
20260505092857 52 266 0.0 3.0 0.00 0.38 0.28 95 1009.0
20260505092333 52 245 0.0 3.0 0.00 0.38 0.28 94 1009.0
20260505092123 52 276 0.0 1.0 0.00 0.38 0.28 95 1009.0
20260505091921 52 260 0.0 0.0 0.00 0.38 0.28 95 1009.0
20260505091717 52 271 0.0 0.0 0.00 0.38 0.28 95 1009.0
20260505091158 52 300 0.0 1.0 0.00 0.38 0.28 95 1009.0
20260505090958 52 227 0.0 0.0 0.00 0.38 0.28 95 1009.0
20260505090438 52 273 0.0 2.0 0.00 0.38 0.28 96 1008.9
20260505090234 52 45 0.0 2.0 0.00 0.38 0.28 97 1008.9
20260505090029 52 65 0.0 2.0 0.00 0.38 0.28 98 1008.9
20260505085820 52 23 0.0 0.0 0.00 0.38 0.28 98 1008.8
20260505085259 51 262 0.0 0.0 0.00 0.38 0.28 98 1008.8
20260505084735 51 238 0.0 0.0 0.00 0.38 0.28 98 1008.8
20260505084526 51 236 0.0 0.0 0.00 0.38 0.28 98 1008.8
20260505083323 50 242 0.0 0.0 0.00 0.38 0.28 98 1008.8
20260505083115 50 242 0.0 0.0 0.00 0.38 0.28 98 1008.8
20260505082914 50 242 0.0 0.0 0.00 0.38 0.28 98 1008.8
20260505082713 50 242 0.0 0.0 0.00 0.38 0.28 98 1008.8
20260505082513 50 242 0.0 0.0 0.00 0.38 0.28 98 1008.8
20260505081944 50 242 0.0 0.0 0.00 0.38 0.28 98 1008.7
20260505081047 50 268 0.0 0.0 0.00 0.38 0.28 98 1008.9
20260505080844 50 23 0.0 0.0 0.00 0.38 0.28 98 1008.8
20260505080635 50 51 0.0 0.0 0.00 0.38 0.28 98 1008.9
20260505080431 50 50 0.0 1.0 0.00 0.38 0.28 98 1008.9